Other Public Products
Issued by NWS Grand Forks, ND

Home | Current Version | Previous Version | Text Only | Print | Product List | Glossary On
Versions: 1 2 3 4 5 6 7 8 9 10 11 12 13 14 15 16 17 18 19 20 21 22 23 24 25 26 27 28 29 30 31 32 33 34 35 36 37 38 39 40 41 42 43 44 45 46 47 48 49 50
000
FPUS83 KFGF 162310
OPUFGF
PRAIRIE TO PINES WEATHER ROUNDUP
NATIONAL WEATHER SERVICE EASTERN NORTH DAKOTA/GRAND FORKS ND
600 PM CDT WED APR 16 2014

 **SATELLITE DATA USED TO AUGMENT SKY COVER AT AUTOMATED STATIONS**
 *****  WEATHER ACROSS EASTERN NORTH DAKOTA  *****

CITY           SKY/WX    TMP DP  RH WIND       PRES   REMARKS
GRAND FORKS    MOSUNNY   39  12  33 NE20G28   30.16R
GRAND FORKS AF SUNNY     39   9  29 NE18G26   30.20R
GRAND CITY NWS   N/A     39 N/A N/A NE9         N/A
BUXTON         NOT AVBL
DEVILS LAKE    SUNNY     36  10  35 NE20      30.21R
FARGO          CLOUDY    38  23  55 NE13      30.14R
WAHPETON ARPT  CLOUDY    34  21  60 NE17      30.11R WCI  23
$$

 *****  WEATHER ACROSS CENTRAL AND WESTERN NORTH DAKOTA  *****

CITY           SKY/WX    TMP DP  RH WIND       PRES   REMARKS
JAMESTOWN      MOSUNNY   39  17  41 NE18      30.14R
BISMARCK       CLOUDY    36  17  46 NE15      30.18R
MINOT          CLOUDY    34  18  52 N9        30.22R
MINOT AFB      PTSUNNY   33  17  52 NE8       30.22R
GARRISON         N/A     32  19  58 E10G16    30.19S WCI  24
WILLISTON      CLOUDY    29  23  78 E14       30.22R WCI  18
DICKINSON      CLOUDY    29  21  72 NE13      30.13R WCI  19
HETTINGER      CLOUDY    31  22  69 NE9       30.12R WCI  23
$$

 *****  OTHER OBSERVATIONS NORTHEAST NORTH DAKOTA  *****

CITY           SKY/WX    TMP DP  RH WIND       PRES   REMARKS
WALHALLA         N/A     36  10  35 N18       30.28R
LANGDON        FAIR      32   9  37 NE18      30.23R WCI  20
CAVALIER       FAIR      36  12  38 NE14      30.26R
GRAFTON        FAIR      37  10  32 NE17      30.23R
CANDO          FAIR      34  10  37 NE16G23   30.24R WCI  23
FORT TOTTEN    NOT AVBL
ROLLA          FAIR      30   9  40 NE18      30.25S WCI  18
RUGBY          MOCLDY    34  16  47 NE14G22   30.23R WCI  24
 ***** THE ABOVE OBSERVATIONS ARE NON NWS ARE NOT QUALITY
        CONTROLLED AND MAY MIS-REPORT RAIN FOR SNOW...
$$

 *****  OTHER OBSERVATIONS SOUTHEAST NORTH DAKOTA *****

CITY           SKY/WX    TMP DP  RH WIND       PRES   REMARKS
COOPERSTOWN    FAIR      36  18  48 NE21      30.16R
VALLEY CITY    NOT AVBL
OAKES          CLOUDY    36  23  60 NE24      30.11R
GWINNER        CLOUDY    36  23  60 NE20G25   30.12R
SHEYENNE NWR     N/A     37  21  51 NE14      29.95
BUFFALO        NOT AVBL
WYNDMERE       NOT AVBL
 ***** THE ABOVE OBSERVATIONS ARE NON NWS ARE NOT QUALITY
       CONTROLLED AND MAY MIS-REPORT RAIN FOR SNOW...
$$

  *****  WEATHER ACROSS NORTHERN MINNESOTA  *****

CITY           SKY/WX    TMP DP  RH WIND       PRES   REMARKS
FLAG ISLAND    SUNNY     34   9  35 N13       30.24S WCI  25
WARROAD        SUNNY     36  10  35 NE12      30.24S
ROSEAU         SUNNY     36   7  30 NE16      30.24R
HALLOCK        CLOUDY    37   5  25 NE13      30.24R
THF RVR FALLS  SUNNY     37   9  30 NE16G22   30.18R
HALSTAD          N/A     42  16  35 NE16        N/A
FOSSTON        MOSUNNY   39  12  33 NE14G23   30.14R
BAUDETTE       SUNNY     37   6  27 E10       30.20S
WASKISH        MOSUNNY   39  10  30 NE10G17   30.16S
CROOKSTON      SUNNY     39  12  33 NE10G21   30.18R
$$
  *****  WEATHER ACROSS CENTRAL AND WEST MINNESOTA  *****

CITY           SKY/WX    TMP DP  RH WIND       PRES   REMARKS
BEMIDJI        PTSUNNY   36  14  40 E13       30.13R
PARK RAPIDS    CLOUDY    30  21  69 NE17      30.11R WCI  18
WADENA         CLOUDY    28  21  74 NE14G22   30.07R WCI  17
DETROIT LAKES  CLOUDY    34  21  60 E14G23    30.11R WCI  24
MOORHEAD       NOT AVBL
FERGUS FALLS   CLOUDY    32  19  59 NE16G25   30.07R WCI  21
ELBOW LAKE     CLOUDY    31  24  76 NE13G23   30.05R WCI  21
MORRIS MN      CLOUDY    32  27  80 N22       30.02R WCI  19
STAPLES        CLOUDY    28  23  80 NE13G18   30.07R WCI  18
WHEATON        CLOUDY    34  28  80 N18       30.10R WCI  23
$$
  *****  WEATHER ELSEWHERE ACROSS MINNESOTA  *****

CITY           SKY/WX    TMP DP  RH WIND       PRES   REMARKS
DULUTH         SNOW      27  22  81 E21G31    30.11R VSB 1/2 WCI  13
INTRNTL FALLS  PTSUNNY   36   3  25 NE9       30.19S
ELY            LGT SNOW  25  19  80 E9        30.20S WCI  15
CLOQUET        LGT SNOW  27  25  93 NE18G25   30.10R VSB 3/4 WCI  13
BRAINERD       LGT SNOW  32  24  72 NE21G26   30.07R WCI  20
HIBBING        LGT SNOW  28  21  75 NE13G23   30.16R WCI  17
ALEXANDRIA     CLOUDY    29  23  78 NE18G30   30.02R WCI  16
SAINT CLOUD    SNOW      30  26  85 NE14G21   29.97R VSB 1/2 WCI  19
MINNEAPOLIS    LGT SNOW  32  32 100 N16       29.89S FOG     WCI  21
$$

  *****  WEATHER ACROSS SOUTH DAKOTA  *****

CITY           SKY/WX    TMP DP  RH WIND       PRES   REMARKS
SIOUX FALLS    CLOUDY    32  28  85 N21G31    29.88R WCI  20
BROOKINGS      NOT AVBL
WATERTOWN      CLOUDY    28  25  88 N23G33    29.99R FOG     WCI  14
HURON          CLOUDY    32  26  78 N17       30.06R WCI  21
SISSETON         N/A     32  25  75 NE18      30.07R WCI  20
ABERDEEN       CLOUDY    32  23  69 N20G26    30.10R WCI  20
MITCHELL       CLOUDY    35  26  69 N26G36    30.02R WCI  22
PIERRE         CLOUDY    37  25  61 NE16      30.08R
MOBRIDGE       MOSUNNY   39  23  52 N16       30.10R
RAPID CITY     CLOUDY    43  26  51 NE13      30.03R
$$

  *****  SOME WEATHER IN NEARBY STATES *****

CITY           SKY/WX    TMP DP  RH WIND       PRES   REMARKS
GLASGOW MT     PTSUNNY   36  20  52 E9        30.13S
GREAT FALLS MT PTSUNNY   42  37  82 E8        29.97F
CHEYENNE WY    MOSUNNY   44  24  45 NE16G28   29.94S
SCOTTSBLUFF NE MOSUNNY   52  28  39 N17G23    29.96R
OMAHA NE       PTSUNNY   50  33  52 NW29G38   29.83R
DES MOINES IA  PTSUNNY   63  31  30 S21G35    29.77F
DAVENPORT IA   CLOUDY    54  26  34 S30G41    29.95F
CHICAGO IL     MOSUNNY   51  22  31 SE22      30.13F
EAU CLAIRE WI  CLOUDY    49  30  48 S17       29.90R
LA CROSSE WI   CLOUDY    54  28  36 SE13G23   29.90S
$$

  *****  SOME NATIONAL WEATHER *****

CITY           SKY/WX    TMP DP  RH WIND       PRES   REMARKS
LA GUARDIA NY  CLEAR     46  16  30 N8        30.44R
RALEIGH NC     CLEAR     53  25  33 NE8       30.37R
ATLANTA GA     MOSUNNY   60  26  27 SE10      30.22R
NEW ORLEANS LA MOSUNNY   61  43  51 NE12      30.12F
OKLAHOMA CITY  MOSUNNY   68  31  25 S17       29.90R
ALBUQUERQUE NM CLOUDY    72   6   7 NW10      29.79S
SALT LAKE CITY PTSUNNY   57   5  12 NW7       29.99F
LOS ANGELES CA SUNNY     64  52  64 W12       29.82F
BOISE ID       SUNNY     60  19  20 NW10G18   29.99F
SEATTLE WA     LGT RAIN  52  49  89 S9        30.05S
$$

*** WEATHER ACROSS MANITOBA...SASKATCHEWAN AND ONTARIO ***
                ***ONTARIO***

CITY           SKY/WX    TMP DP  RH WIND       PRES   REMARKS
GERALDTON      MOSUNNY   30   0  27 NW6       30.28R WCI  24
THUNDER BAY    CLOUDY    30  14  51 SE13      30.32R WCI  20
SIOUX LOOKOUT  MOSUNNY   30  -2  24 N7        30.27R WCI  23
TORONTO        PTSUNNY   36  23  60 S10       30.48R
BIG TROUT LK   SUNNY     18   0  45 NW10      30.33R WCI   6
PICKLE LAKE    MOSUNNY   27   1  33 NW3       30.29R
DRYDEN         SUNNY     32   0  25 NE8       30.25R WCI  25
KENORA         NOT AVBL
$$
                *** MANITOBA***

CITY           SKY/WX    TMP DP  RH WIND       PRES   REMARKS
BRANDON        MOSUNNY   28   9  43 E15       30.34R WCI  17
DAUPHIN        SUNNY     28   3  34 NE6       30.38R WCI  22
ISLAND LAKE    MOSUNNY   25   3  39 N6        30.37S WCI  18
PILOT MOUND      N/A     28   7  40 NE14G20     N/A  WCI  17
THE PAS        SUNNY     27   1  33 CALM      30.42S
THOMPSON       SUNNY     25   7  46 W8        30.39S WCI  16
WINNIPEG       MOSUNNY   30   9  40 N20       30.33S WCI  18
LYNN LAKE      SUNNY     23  -2  33 W7        30.39S WCI  15
CHURCHILL      PTSUNNY   18   7  62 NW18      30.27F WCI   2
GILLAM         PTSUNNY   21   7  53 W12       30.35F WCI   9
$$
                ***SASKATCHEWAN***

CITY           SKY/WX    TMP DP  RH WIND       PRES   REMARKS
ESTEVAN        CLOUDY    28  19  69 E15       30.25S WCI  17
KINDERSLEY     FLURRIES  30  23  74 SE20G25   30.15S WCI  18
LLOYDMINSTER   FLURRIES  28  21  74 SE15      30.18F WCI  17
PRINCE ALBERT  MOSUNNY   28   9  43 SE9       30.34S WCI  20
REGINA         FLURRIES  30  18  59 SE13      30.26R WCI  20



USA.gov is the U.S. government's official web portal to all federal, state and local government web resources and services.